Regional Weather Roundup
Issued by NWS Glasgow, MT

Home | Current Version | Previous Version | Text Only | Print | Product List | Glossary On
Versions: 1 2 3 4 5 6 7 8 9 10 11 12 13 14 15 16 17 18 19 20 21 22 23 24 25 26 27 28 29 30 31 32 33 34 35 36 37 38 39 40 41 42 43 44 45 46 47 48 49 50
000
ASUS45 KGGW 040515
RWRGGW
HOURLY WEATHER ROUNDUP FOR NORTHEAST MONTANA
NATIONAL WEATHER SERVICE GLASGOW MONTANA
1100 PM MDT SUN MAY 03 2015

NOTE: "FAIR" INDICATES FEW OR NO CLOUDS BELOW 12,000 FEET WITH NO
SIGNIFICANT WEATHER AND/OR OBSTRUCTIONS TO VISISBILITY.

NORTHEAST MONTANA


CITY           SKY/WX    TMP DP  RH WIND       PRES   REMARKS
GLASGOW        CLEAR     46  26  45 E9        30.06S
WOLF POINT     CLEAR     41  26  55 NE7       30.10R
JORDAN           N/A     44  27  51 CALM      30.06R
WINNETT          N/A     46  32  58 E3          N/A
SIDNEY         PTCLDY    43  23  45 CALM      30.11R
GLENDIVE       MOCLDY    46  27  46 NE6       30.10R
MALTA            N/A     43  29  57 E3          N/A

FORT PECK REPORTS


CITY           SKY/WX    TMP DP  RH WIND       PRES   REMARKS
FORT PECK        N/A     50  26  39 NE9G17      N/A
THE PINES        N/A     48  30  49 E3          N/A

SOUTHEAST MONTANA


CITY           SKY/WX    TMP DP  RH WIND       PRES   REMARKS
BILLINGS       MOCLDY    50  35  56 N7        30.01S
MILES CITY     PTCLDY    53  28  38 E7        30.06S
BAKER          MOCLDY    40  30  67 SE6       30.11R
LIVINGSTON     CLEAR     50  34  54 E10       29.99R

CENTRAL MONTANA


CITY           SKY/WX    TMP DP  RH WIND       PRES   REMARKS
HAVRE          CLEAR     51  29  42 E13       30.01S
LEWISTOWN      PTCLDY    49  31  49 E13       30.01S
GREAT FALLS    CLEAR     45  31  58 E7        29.96R
CUT BANK       CLEAR     43  22  43 E10       29.98S
HELENA         CLEAR     53  27  36 W9        29.93R
BUTTE          CLEAR     49  25  39 VRB3      29.98R
BOZEMAN        PTCLDY    47  31  53 CALM      29.95S

WESTERN MONTANA


CITY           SKY/WX    TMP DP  RH WIND       PRES   REMARKS
MISSOULA       CLEAR     50  23  34 CALM      29.92R
KALISPELL      NOT AVBL

NORTH DAKOTA


CITY           SKY/WX    TMP DP  RH WIND       PRES   REMARKS
WILLISTON      PTCLDY    43  22  43 CALM      30.11R
DICKINSON      PTCLDY    45  26  47 NE7       30.09R
MINOT          FAIR      44  26  49 W8        30.09R
BISMARCK       PTCLDY    49  24  37 CALM      30.10R

SOUTHERN SASKATCHEWAN


CITY           SKY/WX    TMP DP  RH WIND       PRES   REMARKS
REGINA         PTCLDY    39  32  75 SW3       30.10S
ESTEVAN        CLEAR     43  37  81 CALM      30.10R
SWIFT CURRENT  MOCLDY    36  28  75 SE8       30.09R




USA.gov is the U.S. government's official web portal to all federal, state and local government web resources and services.